Weather in Loknja

Russia / Pskov Oblast     56°49′35″N   30°08′32″E
temp.,
°C
wind,
m/s
gust,
m/s
humid.,
%
clouds,
%
prec.,
mm/h
press.,
hPa
HPBL,
m
17 october, sun
sun1700:00+7wsw5127312 0.0 10091051
03:00+8wsw61272100 0.0 10091365
06:00+8wsw51279100 0.1 10091338
09:00+8wsw41078100 0.2 10091265
12:00+9wsw51075100 0.6 10101101
15:00+10wsw4867100 0.8 10091243
18:00+7wnw3691100 1.9 1010595
21:00+6nw1594100 4.6 1010668
18 october, mon
mon1800:00+5w278998 1.2 1010248
03:00+5w2893100 1.2 1010370
06:00+3wsw39950 0.1 1010312
09:00+4w412800 0.1 1010695
12:00+6w510705 0.0 10111203
15:00+7wnw5106665 0.3 10111417
18:00+5w4107383 0.1 1012494
21:00+4wnw498287 0.3 1013707
19 october, tue
tue1900:00+3nw398914 0.0 1015436
03:00+1nw389599 0.0 1017365
06:00+2wnw269799 0.1 1018377
09:00+2nw3791100 0.1 1020594
12:00+3wnw369698 0.1 1021417
15:00+3wnw478483 0.3 1022769
18:00+2nw4107717 0.2 1023493
21:00−1wnw26865 0.2 1024166
20 october, wed
wed2000:00−2wnw228875 0.0 102527
03:00−1wsw118184 0.0 102440
06:000s257970 0.0 1023172
09:000s3879100 0.0 1021335
12:00+2s41272100 0.1 1018621
15:00+3s61579100 0.3 1014674
18:00+3s71684100 0.9 1010730
21:00+5s61790100 2.1 1006790
21 october, thu
thu2100:00+7ssw61693100 1.8 1003729
03:00+6ssw71886100 3.3 1003671
06:00+7ssw61888100 0.8 1000700
09:00+7ssw61692100 2.9 998627
12:00+8ssw61792100 1.9 997720
15:00+9ssw71691100 1.9 995905
18:00+10sw71689100 0.3 9951283
21:00+11sw7167898 0.6 9941402